{"data":{"norad_id":63217,"epoch":"2026-05-25T03:27:20.596896Z","epoch_age_seconds":73355,"freshness":"FRESH","line1":"1 63217U 25052H   26145.14398839  .00017111  00000+0  53892-3 0  9996","line2":"2 63217  97.3906  41.0991 0002689 157.2132 202.9230 15.32981102 66568","mean_motion":15.32981102,"eccentricity":0.0002689,"inclination_deg":97.3906,"raan_deg":41.0991,"arg_perigee_deg":157.2132,"mean_anomaly_deg":202.923,"bstar":0.00053892,"rev_number":6656,"period_min":93.934621772004,"perigee_km":465.08311975944,"apogee_km":468.76439343434,"semimajor_km":6845.0607565969,"source":"CELESTRAK","updated_at":"2026-05-25T13:38:23.297322Z"}}